| time (UTC) | temp C | wind direction | speed KPH | gust KPH | rain 1hr cm | rain 24hr cm | rain mn cm | humidity % | barometer mb |
| 20260504214525 | 21 | 226 | 14.5 | 25.7 | 0.00 | 0.00 | 0.00 | 38 | 949.2 |
| 20260504213044 | 21 | 246 | 20.9 | 32.2 | 0.00 | 0.00 | 0.00 | 38 | 949.2 |
| 20260504211523 | 20 | 207 | 19.3 | 30.6 | 0.00 | 0.00 | 0.00 | 40 | 949.3 |
| 20260504210026 | 20 | 229 | 14.5 | 37.0 | 0.00 | 0.00 | 0.00 | 39 | 949.4 |
| 20260504204522 | 21 | 244 | 17.7 | 25.7 | 0.00 | 0.00 | 0.00 | 40 | 949.5 |
| 20260504203020 | 21 | 221 | 16.1 | 32.2 | 0.00 | 0.00 | 0.00 | 40 | 949.7 |
| 20260504201522 | 20 | 229 | 16.1 | 27.4 | 0.00 | 0.00 | 0.00 | 42 | 949.9 |
| 20260504200018 | 20 | 219 | 14.5 | 29.0 | 0.00 | 0.00 | 0.00 | 43 | 950.1 |
| 20260504194514 | 20 | 208 | 16.1 | 29.0 | 0.00 | 0.00 | 0.00 | 43 | 950.2 |
| 20260504193008 | 19 | 224 | 16.1 | 30.6 | 0.00 | 0.00 | 0.00 | 45 | 950.3 |
| 20260504191507 | 19 | 211 | 17.7 | 32.2 | 0.00 | 0.00 | 0.00 | 44 | 950.4 |
| 20260504190007 | 18 | 225 | 16.1 | 29.0 | 0.00 | 0.00 | 0.00 | 45 | 950.6 |
| 20260504184511 | 19 | 242 | 19.3 | 30.6 | 0.00 | 0.00 | 0.00 | 45 | 950.7 |
| 20260504183006 | 19 | 234 | 22.5 | 35.4 | 0.00 | 0.00 | 0.00 | 45 | 950.8 |
| 20260504181503 | 19 | 262 | 20.9 | 35.4 | 0.00 | 0.00 | 0.00 | 44 | 950.7 |
| 20260504180100 | 19 | 227 | 24.1 | 37.0 | 0.00 | 0.00 | 0.00 | 44 | 950.9 |
| 20260504174612 | 18 | 222 | 16.1 | 32.2 | 0.00 | 0.00 | 0.00 | 46 | 951.0 |
| 20260504173059 | 19 | 215 | 20.9 | 33.8 | 0.00 | 0.00 | 0.00 | 46 | 951.0 |
| 20260504171553 | 18 | 213 | 19.3 | 32.2 | 0.00 | 0.00 | 0.00 | 48 | 951.1 |
| 20260504081526 | 6 | 222 | 11.3 | 19.3 | 0.00 | 0.00 | 0.00 | 62 | 953.2 |
| 20260504050002 | 8 | 221 | 11.3 | 22.5 | 0.00 | 0.00 | 0.00 | 57 | 953.4 |
| 20260504044501 | 8 | 209 | 9.7 | 17.7 | 0.00 | 0.00 | 0.00 | 57 | 953.3 |
| 20260504043101 | 8 | 205 | 6.4 | 12.9 | 0.00 | 0.00 | 0.00 | 57 | 953.3 |
| 20260504041554 | 9 | 213 | 6.4 | 12.9 | 0.00 | 0.00 | 0.00 | 56 | 953.6 |
| 20260504040052 | 9 | 240 | 6.4 | 14.5 | 0.00 | 0.00 | 0.00 | 56 | 953.4 |
| 20260504034554 | 10 | 229 | 6.4 | 11.3 | 0.00 | 0.00 | 0.00 | 55 | 953.4 |
| 20260504033055 | 10 | 255 | 11.3 | 22.5 | 0.00 | 0.00 | 0.00 | 54 | 953.4 |
| 20260504031550 | 10 | 300 | 8.0 | 16.1 | 0.00 | 0.00 | 0.00 | 54 | 953.6 |
| 20260504030050 | 10 | 263 | 12.9 | 22.5 | 0.00 | 0.00 | 0.00 | 55 | 953.7 |
| 20260504024548 | 9 | 275 | 8.0 | 17.7 | 0.00 | 0.00 | 0.00 | 56 | 953.7 |
| 20260504023047 | 9 | 297 | 6.4 | 16.1 | 0.00 | 0.00 | 0.00 | 56 | 953.8 |
| 20260504021545 | 10 | 272 | 8.0 | 22.5 | 0.00 | 0.00 | 0.00 | 56 | 954.0 |
| 20260504020045 | 10 | 286 | 11.3 | 29.0 | 0.00 | 0.00 | 0.00 | 55 | 954.0 |
| 20260504014547 | 9 | 340 | 12.9 | 29.0 | 0.00 | 0.00 | 0.00 | 56 | 953.7 |
| 20260504013049 | 9 | 51 | 4.8 | 20.9 | 0.00 | 0.00 | 0.00 | 57 | 953.7 |
| 20260504011548 | 9 | 257 | 11.3 | 19.3 | 0.00 | 0.00 | 0.00 | 57 | 953.8 |
| 20260504010053 | 9 | 350 | 3.2 | 14.5 | 0.00 | 0.00 | 0.00 | 57 | 953.6 |
| 20260504004542 | 10 | 286 | 4.8 | 16.1 | 0.00 | 0.00 | 0.00 | 55 | 953.7 |
| 20260504003043 | 10 | 269 | 6.4 | 27.4 | 0.00 | 0.00 | 0.00 | 54 | 953.5 |
| 20260504001600 | 10 | 287 | 6.4 | 14.5 | 0.00 | 0.00 | 0.00 | 53 | 953.2 |
| 20260504000043 | 10 | 243 | 4.8 | 8.0 | 0.00 | 0.00 | 0.00 | 52 | 953.0 |
| 20260503234540 | 10 | 243 | 3.2 | 8.0 | 0.00 | 0.00 | 0.00 | 51 | 952.9 |
| 20260503233040 | 11 | 240 | 6.4 | 16.1 | 0.00 | 0.00 | 0.00 | 49 | 952.7 |
| 20260503231542 | 11 | 260 | 11.3 | 17.7 | 0.00 | 0.00 | 0.00 | 48 | 952.8 |
| 20260503230039 | 11 | 281 | 8.0 | 17.7 | 0.00 | 0.00 | 0.00 | 49 | 952.9 |
| 20260503224538 | 11 | 283 | 4.8 | 20.9 | 0.00 | 0.00 | 0.00 | 49 | 952.8 |
| 20260503223041 | 11 | 303 | 4.8 | 24.1 | 0.00 | 0.00 | 0.00 | 48 | 952.7 |
| 20260503221542 | 11 | 283 | 6.4 | 16.1 | 0.00 | 0.00 | 0.00 | 47 | 952.9 |
| 20260503220047 | 11 | 263 | 4.8 | 27.4 | 0.00 | 0.00 | 0.00 | 47 | 953.1 |